Location: Newark
(46.1292°N, 1.0086°W)
Time: 18:45:50
(UTC+00:00)

SR - All Passes

Search period start: 15 November 2019 00:00
Search period end: 25 November 2019 00:00
Orbit: 574 x 882 km, 66.7° (Epoch: 14 November)

Date Brightness Start Highest point End Pass type
(mag) Time Alt. Az. Time Alt. Az. Time Alt. Az.
15 Nov - 00:52:58 10° NW 00:58:52 65° WSW 01:04:33 10° SSE night (unlit)
15 Nov - 02:38:39 10° W 02:39:50 11° W 02:41:01 10° WSW night (unlit)
15 Nov - 15:24:52 10° SSW 15:29:59 55° ESE 15:35:32 10° NE daylight
15 Nov - 17:07:36 10° WSW 17:12:26 32° NW 17:17:34 10° NNE visible
15 Nov - 18:54:24 10° NW 18:56:30 12° NNW 18:58:39 10° N visible
15 Nov - 22:21:39 10° NNW 22:26:03 21° NNE 22:30:25 10° E night (unlit)
16 Nov - 00:03:14 10° NNW 00:09:12 75° NE 00:15:00 10° SE night (unlit)
16 Nov - 01:46:25 10° WNW 01:50:43 21° WSW 01:54:55 10° SSW night (unlit)
16 Nov - 14:36:07 10° SSE 14:40:36 29° ESE 14:45:25 10° NE daylight
16 Nov - 16:17:13 10° SW 16:22:26 51° NW 16:28:04 10° NNE daylight
16 Nov - 18:02:39 10° WNW 18:06:00 16° NNW 18:09:27 10° N visible
16 Nov - 21:32:21 10° N 21:35:40 15° NNE 21:38:59 10° ENE visible
16 Nov - 23:13:38 10° NNW 23:19:21 45° NE 23:24:55 10° ESE night (unlit)
17 Nov - 00:56:00 10° NW 01:01:26 38° WSW 01:06:41 10° S night (unlit)
17 Nov - 13:48:23 10° SE 13:51:25 15° ESE 13:54:35 10° ENE daylight
17 Nov - 15:27:20 10° SSW 15:32:38 87° WNW 15:38:25 10° NNE daylight
17 Nov - 17:11:23 10° W 17:15:39 22° NW 17:20:06 10° NNE visible
17 Nov - 20:43:10 10° N 20:45:08 12° NNE 20:47:06 10° NE visible
17 Nov - 22:24:09 10° NNW 22:29:18 29° NE 22:34:22 10° E night (unlit)
18 Nov - 00:06:02 10° NW 00:11:57 68° WSW 00:17:39 10° SSE night (unlit)
18 Nov - 01:51:13 10° W 01:52:58 11° W 01:54:41 10° WSW night (unlit)
18 Nov - 14:37:58 10° S 14:43:04 52° ESE 14:48:37 10° NE daylight
18 Nov - 16:20:34 10° WSW 16:25:28 33° NW 16:30:41 10° NNE daylight
18 Nov - 18:07:14 10° NW 18:09:29 12° NNW 18:11:48 10° N visible
18 Nov - 21:34:46 10° NNW 21:39:04 20° NNE 21:43:21 10° E visible
18 Nov - 23:16:18 10° NNW 23:22:17 71° NE 23:28:02 10° SE night (unlit)
19 Nov - 00:59:25 10° WNW 01:03:50 22° WSW 01:08:09 10° SSW night (unlit)
19 Nov - 13:49:16 10° SSE 13:53:42 28° ESE 13:58:26 10° NE daylight
19 Nov - 15:30:13 10° SW 15:35:29 53° NW 15:41:10 10° NNE daylight
19 Nov - 17:15:32 10° WNW 17:19:00 16° NNW 17:22:34 10° N visible
19 Nov - 20:45:28 10° N 20:48:40 15° NNE 20:51:53 10° ENE visible
19 Nov - 22:26:44 10° NNW 22:32:24 43° NE 22:37:55 10° ESE night (unlit)
20 Nov - 00:09:03 10° NW 00:14:33 40° WSW 00:19:50 10° S night (unlit)
20 Nov - 13:01:41 10° SE 13:04:32 15° ESE 13:07:30 10° ENE daylight
20 Nov - 14:40:22 10° SSW 14:45:43 89° SE 14:51:31 10° NNE daylight
20 Nov - 16:24:18 10° W 16:28:40 23° NW 16:33:14 10° NNE daylight
20 Nov - 18:12:24 10° NNW 18:13:05 10° N 18:13:47 10° N visible
20 Nov - 19:56:17 10° N 19:58:07 11° NNE 19:59:58 10° NE visible
20 Nov - 21:37:16 10° NNW 21:42:20 28° NE 21:47:20 10° E visible
20 Nov - 23:19:06 10° NW 23:25:03 72° WSW 23:30:45 10° SSE night (unlit)
21 Nov - 01:03:57 10° WNW 01:06:06 12° W 01:08:13 10° WSW night (unlit)
21 Nov - 13:51:04 10° S 13:56:09 49° ESE 14:01:40 10° NE daylight
21 Nov - 15:33:32 10° WSW 15:38:30 34° NW 15:43:48 10° NNE daylight
21 Nov - 17:20:03 10° NW 17:22:29 13° NNW 17:24:58 10° N visible
21 Nov - 20:47:52 10° NNW 20:52:06 19° NNE 20:56:16 10° ENE visible
21 Nov - 22:29:23 10° NNW 22:35:21 68° NE 22:41:05 10° SE night (unlit)
22 Nov - 00:12:25 10° WNW 00:16:57 23° WSW 00:21:22 10° SSW night (unlit)
22 Nov - 13:02:25 10° SSE 13:06:49 27° ESE 13:11:28 10° NE daylight
22 Nov - 14:43:14 10° SW 14:48:33 56° NW 14:54:16 10° NNE daylight
22 Nov - 16:28:25 10° WNW 16:32:00 17° NNW 16:35:43 10° N daylight
22 Nov - 19:58:34 10° N 20:01:40 14° NNE 20:04:46 10° NE visible
22 Nov - 21:39:50 10° NNW 21:45:28 41° NE 21:50:55 10° ESE visible
22 Nov - 23:22:06 10° NW 23:27:39 42° WSW 23:32:58 10° S night (unlit)
23 Nov - 12:15:01 10° SE 12:17:39 14° ESE 12:20:24 10° ENE daylight
23 Nov - 13:53:26 10° SSW 13:58:47 85° ESE 14:04:36 10° NE daylight
23 Nov - 15:37:13 10° W 15:41:41 24° NW 15:46:21 10° NNE daylight
23 Nov - 17:25:05 10° NNW 17:26:05 10° NNW 17:27:05 10° N visible
23 Nov - 19:09:25 10° N 19:11:06 11° NNE 19:12:49 10° NNE visible
23 Nov - 20:50:22 10° NNW 20:55:22 27° NE 21:00:17 10° E visible
23 Nov - 22:32:11 10° NW 22:38:08 75° WSW 22:43:50 10° SSE night (unlit)
24 Nov - 00:16:44 10° WNW 00:19:13 13° W 00:21:40 10° SW night (unlit)
24 Nov - 13:04:10 10° S 13:09:14 47° ESE 13:14:44 10° NE daylight
24 Nov - 14:46:29 10° WSW 14:51:32 36° NW 14:56:54 10° NNE daylight
24 Nov - 16:32:54 10° NW 16:35:29 13° NNW 16:38:06 10° N daylight
24 Nov - 20:00:59 10° NNW 20:05:07 19° NNE 20:09:11 10° ENE visible
24 Nov - 21:42:28 10° NNW 21:48:25 65° NE 21:54:07 10° SE visible
24 Nov - 23:25:25 10° NW 23:30:04 25° WSW 23:34:34 10° SSW night (unlit)
